Tracking 35048 objects as of 19-Aug-2026
HD Live streaming from Space Station
objects crossing your sky now

SALYUT 7 DEB


SALYUT 7 DEB is no longer on orbit


NORAD ID: 14392
Int'l Code: 1982-033AK
Launch date: April 19, 1982
Source: Commonwealth of Independent States (former USSR) (CIS)
Launch site: TYURATAM MISSILE AND SPACE COMPLEX (TTMTR)
Decay date: 1984-03-15

Note: This is SATELLITE DEBRIS
Your satellite tracking list
Your tracking list is empty




NASA's NSSDC Master Catalog

Two Line Element Set (TLE):
1 14392U 82033 AK 84075.16098179  .06432074 +56564-4 +17552-3 0  9999
2 14392 051.6111 134.5407 0002554 353.1817 006.9174 16.45641924110117
Source of the keplerian elements: AFSPC